VIR23Y EGCC-EGPH

Flight info

Callsign VIR23Y
Flight time N/A
Altitude 24000
Route POL N601 INPIP
Aircraft A35K/H-SDE2E3GHIJ3J4J5LM1ORWXY/LB1D1

Departure

Time N/A
Airport Manchester Airport (EGCC)

Arrival

Time 2026-04-24 19:23
Airport Edinburgh Airport (EGPH)
Time Latitude Longitude Altitude Speed Heading
2026-04-24 18:54 53.96170 -2.25221 13583 ft 332 kts 337°
2026-04-24 18:55 54.00513 -2.28202 15014 ft 341 kts 338°
2026-04-24 18:55 54.02725 -2.29721 15721 ft 345 kts 338°
2026-04-24 18:55 54.04967 -2.31261 16424 ft 350 kts 338°
2026-04-24 18:56 54.07234 -2.32830 17126 ft 354 kts 338°
2026-04-24 18:56 54.09530 -2.34424 17829 ft 358 kts 338°
2026-04-24 18:56 54.11854 -2.36040 18522 ft 363 kts 338°
2026-04-24 18:56 54.14204 -2.37675 19147 ft 367 kts 338°
2026-04-24 18:57 54.16581 -2.39327 19770 ft 370 kts 338°
2026-04-24 18:57 54.18975 -2.40986 20394 ft 374 kts 338°
2026-04-24 18:57 54.21394 -2.42667 21019 ft 377 kts 338°
2026-04-24 18:57 54.23832 -2.44366 21672 ft 379 kts 338°
2026-04-24 18:58 54.26281 -2.46074 22344 ft 381 kts 338°
2026-04-24 18:58 54.28748 -2.47796 22955 ft 385 kts 338°
2026-04-24 18:58 54.31239 -2.49536 23563 ft 388 kts 338°
2026-04-24 18:58 54.33746 -2.51290 24044 ft 391 kts 338°
2026-04-24 18:59 54.36262 -2.53053 24210 ft 387 kts 338°
2026-04-24 18:59 54.38694 -2.54761 24246 ft 369 kts 338°
2026-04-24 18:59 54.41038 -2.56409 24248 ft 361 kts 338°
2026-04-24 18:59 54.43358 -2.58042 24247 ft 360 kts 338°
2026-04-24 19:00 54.45673 -2.59672 24247 ft 360 kts 338°
2026-04-24 19:00 54.47989 -2.61306 24247 ft 359 kts 339°
2026-04-24 19:00 54.50303 -2.62939 24249 ft 359 kts 339°
2026-04-24 19:00 54.52612 -2.64563 24249 ft 359 kts 339°
2026-04-24 19:01 54.54891 -2.66174 24248 ft 359 kts 339°
2026-04-24 19:01 54.57199 -2.67813 24246 ft 359 kts 339°
2026-04-24 19:01 54.59511 -2.69457 24242 ft 359 kts 339°
2026-04-24 19:01 54.61824 -2.71103 24246 ft 360 kts 339°
2026-04-24 19:02 54.63385 -2.72215 24249 ft 360 kts 339°
2026-04-24 19:02 54.66454 -2.74403 24249 ft 361 kts 339°
2026-04-24 19:02 54.68777 -2.76061 24249 ft 361 kts 339°
2026-04-24 19:02 54.71093 -2.77715 24249 ft 361 kts 339°
2026-04-24 19:03 54.73413 -2.79373 24247 ft 361 kts 338°
2026-04-24 19:03 54.75731 -2.81033 24251 ft 361 kts 338°
2026-04-24 19:03 54.78053 -2.82699 24249 ft 361 kts 338°
2026-04-24 19:03 54.80377 -2.84367 24249 ft 362 kts 338°
2026-04-24 19:04 54.82701 -2.86038 24240 ft 361 kts 338°
2026-04-24 19:04 54.85094 -2.87760 24165 ft 385 kts 338°
2026-04-24 19:04 54.87640 -2.89593 24094 ft 394 kts 338°
2026-04-24 19:04 54.90145 -2.91395 23875 ft 395 kts 338°
2026-04-24 19:05 54.92683 -2.93230 23610 ft 395 kts 338°
2026-04-24 19:05 54.95215 -2.95065 23333 ft 393 kts 338°
2026-04-24 19:05 54.97737 -2.96894 23064 ft 392 kts 338°
2026-04-24 19:05 55.00242 -2.98712 22794 ft 389 kts 338°
2026-04-24 19:06 55.02737 -3.00525 22527 ft 387 kts 337°
2026-04-24 19:06 55.05213 -3.02327 22216 ft 382 kts 337°
2026-04-24 19:06 55.07643 -3.04098 21767 ft 375 kts 337°
2026-04-24 19:06 55.10041 -3.05847 21249 ft 371 kts 337°
2026-04-24 19:07 55.12405 -3.07574 20744 ft 366 kts 337°
2026-04-24 19:07 55.14740 -3.09281 20248 ft 363 kts 337°
2026-04-24 19:07 55.16311 -3.10428 19891 ft 362 kts 337°
2026-04-24 19:07 55.19426 -3.12710 19149 ft 368 kts 336°
2026-04-24 19:08 55.21787 -3.14445 18575 ft 367 kts 336°
2026-04-24 19:08 55.24136 -3.16174 17964 ft 365 kts 336°
2026-04-24 19:08 55.26461 -3.17887 17459 ft 358 kts 336°
2026-04-24 19:08 55.28730 -3.19503 17174 ft 346 kts 340°
2026-04-24 19:09 55.31053 -3.20208 16893 ft 335 kts 360°
2026-04-24 19:09 55.33329 -3.19972 16449 ft 320 kts
2026-04-24 19:09 55.35524 -3.19610 15523 ft 315 kts
2026-04-24 19:09 55.37679 -3.19249 14898 ft 310 kts
2026-04-24 19:10 55.39820 -3.18900 14401 ft 308 kts
2026-04-24 19:10 55.41945 -3.18559 13913 ft 305 kts
2026-04-24 19:10 55.44050 -3.18225 13440 ft 301 kts
2026-04-24 19:10 55.46112 -3.17898 13247 ft 296 kts
2026-04-24 19:11 55.48166 -3.17574 13234 ft 296 kts
2026-04-24 19:11 55.50220 -3.17251 13236 ft 296 kts
2026-04-24 19:11 55.52250 -3.16932 13042 ft 285 kts
2026-04-24 19:11 55.54199 -3.16624 12148 ft 282 kts
2026-04-24 19:12 55.56180 -3.16314 11093 ft 287 kts
2026-04-24 19:12 55.58157 -3.16004 10304 ft 283 kts
2026-04-24 19:12 55.60112 -3.15695 9802 ft 282 kts
2026-04-24 19:12 55.62058 -3.15388 9356 ft 280 kts
2026-04-24 19:13 55.63339 -3.15187 9081 ft 278 kts
2026-04-24 19:13 55.65908 -3.15092 8503 ft 275 kts 348°
2026-04-24 19:13 55.67631 -3.16432 8097 ft 271 kts 322°
2026-04-24 19:13 55.68810 -3.18941 7715 ft 270 kts 297°
2026-04-24 19:14 55.69416 -3.22053 7363 ft 264 kts 285°
2026-04-24 19:14 55.69842 -3.25154 7060 ft 256 kts 284°
2026-04-24 19:14 55.70244 -3.28213 6683 ft 253 kts 284°
2026-04-24 19:14 55.70640 -3.31230 6271 ft 250 kts 284°
2026-04-24 19:15 55.71031 -3.34217 5875 ft 248 kts 284°
2026-04-24 19:15 55.71424 -3.37180 5450 ft 245 kts 284°
2026-04-24 19:15 55.71819 -3.40104 5060 ft 243 kts 284°
2026-04-24 19:15 55.72218 -3.43009 4646 ft 242 kts 284°
2026-04-24 19:16 55.73022 -3.48764 4020 ft 239 kts 284°
2026-04-24 19:16 55.73429 -3.51632 3998 ft 240 kts 284°
2026-04-24 19:16 55.73833 -3.54501 4000 ft 240 kts 284°
2026-04-24 19:17 55.74230 -3.57376 3999 ft 239 kts 284°
2026-04-24 19:17 55.74497 -3.59312 3999 ft 239 kts 284°
2026-04-24 19:17 55.74890 -3.62178 3999 ft 239 kts 284°
2026-04-24 19:17 55.75284 -3.65051 3998 ft 239 kts 284°
2026-04-24 19:18 55.75678 -3.67924 3994 ft 239 kts 284°
2026-04-24 19:18 55.76073 -3.70795 3995 ft 239 kts 284°
2026-04-24 19:18 55.76751 -3.73473 3959 ft 240 kts 308°
2026-04-24 19:18 55.78046 -3.75255 3730 ft 238 kts 337°
2026-04-24 19:19 55.79673 -3.75643 3488 ft 239 kts
2026-04-24 19:19 55.81238 -3.74684 3192 ft 239 kts 26°
2026-04-24 19:19 55.82609 -3.73009 3014 ft 241 kts 43°
2026-04-24 19:19 55.83657 -3.70673 2984 ft 243 kts 57°
2026-04-24 19:20 55.84513 -3.68086 3004 ft 242 kts 59°
2026-04-24 19:20 55.85358 -3.65502 3001 ft 242 kts 60°
2026-04-24 19:20 55.86179 -3.62879 3004 ft 243 kts 56°
2026-04-24 19:20 55.87136 -3.60396 2950 ft 243 kts 55°
2026-04-24 19:21 55.87990 -3.57875 2664 ft 233 kts 60°
2026-04-24 19:21 55.88798 -3.55452 2356 ft 222 kts 58°
2026-04-24 19:21 55.89586 -3.53182 2028 ft 214 kts 58°
2026-04-24 19:21 55.90344 -3.50945 1746 ft 214 kts 59°
2026-04-24 19:22 55.91113 -3.48598 1477 ft 228 kts 59°
2026-04-24 19:22 55.91907 -3.46131 1212 ft 238 kts 59°
2026-04-24 19:22 55.92853 -3.43512 813 ft 248 kts 56°
2026-04-24 19:22 55.93711 -3.41184 574 ft 205 kts 57°
2026-04-24 19:23 55.94378 -3.39068 243 ft 186 kts 62°
2026-04-24 19:23 55.95033 -3.37230 118 ft 164 kts 58°
2026-04-24 19:23 55.95505 -3.35800 116 ft 77 kts 71°
2026-04-24 19:23 55.95506 -3.35454 117 ft 11 kts 129°
2026-04-24 19:24 55.95495 -3.35441 122 ft 3 kts 146°
2026-04-24 19:24 55.95479 -3.35422 122 ft 3 kts 147°
2026-04-24 19:24 55.95473 -3.35415 118 ft 0 kts 148°
2026-04-24 19:24 55.95456 -3.35397 118 ft 4 kts 148°
2026-04-24 19:25 55.95435 -3.35379 118 ft 2 kts 164°
2026-04-24 19:25 55.95423 -3.35403 117 ft 6 kts 242°
2026-04-24 19:25 55.95389 -3.35527 118 ft 15 kts 242°
2026-04-24 19:25 55.95332 -3.35700 117 ft 10 kts 238°
2026-04-24 19:26 55.95326 -3.35716 117 ft 3 kts 238°
2026-04-24 19:26 55.95302 -3.35786 118 ft 10 kts 238°
2026-04-24 19:26 55.95254 -3.35927 117 ft 14 kts 237°
2026-04-24 19:26 55.95162 -3.35941 117 ft 17 kts 153°
2026-04-24 19:27 55.95110 -3.35833 117 ft 11 kts 121°
2026-04-24 19:27 55.95082 -3.35789 118 ft 5 kts 163°
2026-04-24 19:27 55.95056 -3.35795 120 ft 1 kts 193°
2026-04-24 19:27 55.95022 -3.35821 119 ft 10 kts 205°
2026-04-24 19:28 55.94974 -3.35907 117 ft 8 kts 245°
2026-04-24 19:28 55.94961 -3.35979 118 ft 4 kts 252°
2026-04-24 19:28 55.94959 -3.35989 122 ft 0 kts 253°